HAZ3166 ZSPD-ZGGG

Flight info

Callsign HAZ3166
Flight time N/A
Altitude 36100
Route NXD92D NXD W131 AKDIM A470 DUBGO W134 ELNEX A599 PLT W19 OLPAB OLPAB1
Aircraft A20N/M-SDE2E3FGHIRWXY/LB1

Departure

Time 2026-04-30 11:14
Airport Shanghai Pudong International Airport (ZSPD)

Arrival

Time N/A
Airport Guangzhou Baiyun International Airport (ZGGG)
Time Latitude Longitude Altitude Speed Heading
2026-04-30 10:34 31.14110 121.81416 21 ft 0 kts 72°
2026-04-30 10:58 31.14102 121.81387 22 ft 3 kts 72°
2026-04-30 10:58 31.14094 121.81358 22 ft 3 kts 72°
2026-04-30 10:59 31.14086 121.81329 22 ft 3 kts 72°
2026-04-30 10:59 31.14081 121.81313 22 ft 0 kts 72°
2026-04-30 11:01 31.14082 121.81317 22 ft 1 kts 72°
2026-04-30 11:01 31.14087 121.81332 22 ft 2 kts 72°
2026-04-30 11:02 31.14086 121.81355 22 ft 2 kts 126°
2026-04-30 11:02 31.14061 121.81360 22 ft 4 kts 177°
2026-04-30 11:02 31.14024 121.81362 22 ft 6 kts 177°
2026-04-30 11:02 31.13978 121.81366 22 ft 7 kts 172°
2026-04-30 11:03 31.13924 121.81382 22 ft 8 kts 162°
2026-04-30 11:03 31.13863 121.81406 22 ft 9 kts 160°
2026-04-30 11:03 31.13793 121.81435 21 ft 11 kts 160°
2026-04-30 11:04 31.13612 121.81515 18 ft 15 kts 158°
2026-04-30 11:04 31.13511 121.81563 18 ft 15 kts 156°
2026-04-30 11:04 31.13407 121.81601 18 ft 15 kts 172°
2026-04-30 11:04 31.13296 121.81619 18 ft 16 kts 165°
2026-04-30 11:05 31.13185 121.81660 18 ft 16 kts 161°
2026-04-30 11:05 31.13095 121.81617 18 ft 16 kts 250°
2026-04-30 11:05 31.13061 121.81494 20 ft 15 kts 252°
2026-04-30 11:05 31.13027 121.81373 21 ft 15 kts 251°
2026-04-30 11:06 31.12999 121.81255 22 ft 14 kts 248°
2026-04-30 11:06 31.12962 121.81139 22 ft 15 kts 251°
2026-04-30 11:06 31.12927 121.81017 21 ft 16 kts 252°
2026-04-30 11:06 31.12890 121.80886 20 ft 17 kts 252°
2026-04-30 11:07 31.12851 121.80743 18 ft 18 kts 252°
2026-04-30 11:07 31.12811 121.80600 19 ft 18 kts 252°
2026-04-30 11:07 31.12772 121.80463 21 ft 17 kts 252°
2026-04-30 11:07 31.12736 121.80332 22 ft 6 kts 252°
2026-04-30 11:08 31.12735 121.80331 22 ft 0 kts 252°
2026-04-30 11:08 31.12734 121.80328 22 ft 1 kts 252°
2026-04-30 11:08 31.12730 121.80311 22 ft 3 kts 252°
2026-04-30 11:08 31.12721 121.80280 22 ft 4 kts 252°
2026-04-30 11:09 31.12709 121.80238 22 ft 6 kts 252°
2026-04-30 11:09 31.12694 121.80182 22 ft 7 kts 252°
2026-04-30 11:09 31.12689 121.80118 22 ft 8 kts 301°
2026-04-30 11:09 31.12737 121.80070 22 ft 9 kts 300°
2026-04-30 11:10 31.12736 121.79993 22 ft 10 kts 245°
2026-04-30 11:10 31.12721 121.79911 22 ft 10 kts 284°
2026-04-30 11:10 31.12775 121.79861 22 ft 0 kts 345°
2026-04-30 11:13 31.12848 121.79839 22 ft 41 kts 346°
2026-04-30 11:13 31.13362 121.79644 22 ft 112 kts 342°
2026-04-30 11:13 31.14292 121.79272 48 ft 164 kts 343°
2026-04-30 11:13 31.15385 121.78829 561 ft 171 kts 344°
2026-04-30 11:14 31.16520 121.78413 1324 ft 169 kts 342°
2026-04-30 11:14 31.17603 121.78004 2142 ft 166 kts 341°
2026-04-30 11:14 31.18727 121.77564 2700 ft 180 kts 340°
2026-04-30 11:14 31.20012 121.77053 2973 ft 208 kts 340°
2026-04-30 11:15 31.21509 121.76457 3011 ft 241 kts 341°
2026-04-30 11:15 31.23116 121.75816 3007 ft 247 kts 341°
2026-04-30 11:15 31.24761 121.75162 3006 ft 248 kts 341°
2026-04-30 11:15 31.26396 121.74509 2996 ft 248 kts 340°
2026-04-30 11:16 31.28024 121.73858 3004 ft 247 kts 341°
2026-04-30 11:16 31.29646 121.73208 3002 ft 248 kts 340°
2026-04-30 11:16 31.31282 121.72551 3002 ft 248 kts 341°
2026-04-30 11:16 31.32870 121.71727 2989 ft 248 kts 322°
2026-04-30 11:17 31.33933 121.70168 2998 ft 250 kts 295°
2026-04-30 11:17 31.34285 121.68162 2999 ft 254 kts 270°
2026-04-30 11:17 31.34005 121.66122 3068 ft 260 kts 261°
2026-04-30 11:17 31.33632 121.64023 3710 ft 268 kts 261°
2026-04-30 11:18 31.33263 121.61935 4859 ft 263 kts 263°
2026-04-30 11:18 31.32564 121.57775 6824 ft 266 kts 264°
2026-04-30 11:18 31.32216 121.55662 7766 ft 267 kts 264°
2026-04-30 11:19 31.31872 121.53563 8708 ft 268 kts 264°
2026-04-30 11:19 31.31521 121.51432 9649 ft 269 kts 264°
2026-04-30 11:19 31.31172 121.49314 10522 ft 269 kts 265°
2026-04-30 11:19 31.30815 121.47129 11061 ft 283 kts 264°
2026-04-30 11:20 31.30434 121.44782 11506 ft 301 kts 264°
2026-04-30 11:20 31.30028 121.42315 11813 ft 320 kts 264°
2026-04-30 11:20 31.29595 121.39700 11882 ft 335 kts 263°
2026-04-30 11:20 31.29147 121.37022 11851 ft 337 kts 263°
2026-04-30 11:21 31.28463 121.34398 11869 ft 345 kts 250°
2026-04-30 11:21 31.27138 121.32022 11872 ft 355 kts 234°
2026-04-30 11:21 31.25284 121.30022 11879 ft 361 kts 226°
2026-04-30 11:21 31.23340 121.28165 11881 ft 361 kts 225°
2026-04-30 11:22 31.21405 121.26334 11885 ft 362 kts 225°
2026-04-30 11:22 31.19445 121.24470 11884 ft 362 kts 225°
2026-04-30 11:22 31.17487 121.22599 11885 ft 362 kts 225°
2026-04-30 11:22 31.15528 121.20726 11885 ft 363 kts 225°
2026-04-30 11:23 31.13601 121.18880 11887 ft 364 kts 225°
2026-04-30 11:23 31.11611 121.16972 12209 ft 372 kts 226°
2026-04-30 11:23 31.07842 121.12946 14045 ft 361 kts 239°
2026-04-30 11:24 31.06598 121.10492 14815 ft 352 kts 252°
2026-04-30 11:24 31.05814 121.07830 15571 ft 348 kts 259°
2026-04-30 11:24 31.05145 121.05110 16387 ft 348 kts 260°
2026-04-30 11:25 31.03822 120.99702 17856 ft 348 kts 260°
2026-04-30 11:25 31.03164 120.97025 18602 ft 347 kts 260°
2026-04-30 11:25 31.01832 120.91605 19752 ft 353 kts 260°
2026-04-30 11:26 31.00471 120.86114 20974 ft 356 kts 260°
2026-04-30 11:26 30.99776 120.83321 21450 ft 360 kts 259°
2026-04-30 11:26 30.99085 120.80537 22005 ft 361 kts 259°
2026-04-30 11:27 30.98387 120.77735 22514 ft 363 kts 259°
2026-04-30 11:27 30.97680 120.74903 23061 ft 364 kts 259°
2026-04-30 11:27 30.96972 120.72066 23590 ft 365 kts 259°
2026-04-30 11:27 30.96262 120.69231 24025 ft 368 kts 259°
2026-04-30 11:28 30.94827 120.63512 24926 ft 372 kts 259°
2026-04-30 11:28 30.94099 120.60605 25333 ft 375 kts 259°
2026-04-30 11:28 30.93372 120.57716 25745 ft 376 kts 259°
2026-04-30 11:29 30.92641 120.54798 26180 ft 377 kts 259°
2026-04-30 11:29 30.91892 120.51826 26548 ft 380 kts 259°
2026-04-30 11:29 30.90196 120.45994 27256 ft 389 kts 250°
2026-04-30 11:30 30.86808 120.40880 27839 ft 415 kts 232°
2026-04-30 11:30 30.84496 120.38808 28112 ft 424 kts 226°
2026-04-30 11:30 30.82115 120.36820 28513 ft 422 kts 226°
2026-04-30 11:31 30.79718 120.34843 28993 ft 419 kts 226°
2026-04-30 11:31 30.77351 120.32893 29443 ft 417 kts 226°
2026-04-30 11:31 30.75009 120.30965 29862 ft 415 kts 226°
2026-04-30 11:31 30.72663 120.29034 30260 ft 414 kts 226°
2026-04-30 11:32 30.70329 120.27111 30673 ft 412 kts 226°
2026-04-30 11:32 30.67978 120.25182 31081 ft 410 kts 226°
2026-04-30 11:32 30.65679 120.23297 31463 ft 408 kts 227°
2026-04-30 11:33 30.61053 120.19506 32190 ft 405 kts 227°
2026-04-30 11:33 30.58778 120.17643 32500 ft 404 kts 227°
2026-04-30 11:33 30.56475 120.15753 32791 ft 404 kts 228°
2026-04-30 11:33 30.54196 120.13886 33147 ft 402 kts 228°
2026-04-30 11:34 30.51897 120.12005 33510 ft 400 kts 228°
2026-04-30 11:34 30.49639 120.10156 33856 ft 398 kts 228°
2026-04-30 11:34 30.47386 120.08316 34157 ft 398 kts 228°
2026-04-30 11:34 30.45137 120.06486 34416 ft 399 kts 227°
2026-04-30 11:35 30.42799 120.04733 34714 ft 402 kts 224°
2026-04-30 11:35 30.40377 120.03093 35065 ft 402 kts 223°
2026-04-30 11:35 30.37959 120.01480 35330 ft 401 kts 223°
2026-04-30 11:35 30.35555 119.99871 35614 ft 400 kts 223°
2026-04-30 11:36 30.33127 119.98254 35886 ft 399 kts 223°
2026-04-30 11:36 30.30734 119.96658 36052 ft 400 kts 223°
2026-04-30 11:36 30.28330 119.95053 36211 ft 401 kts 223°
2026-04-30 11:36 30.25924 119.93446 36463 ft 400 kts 223°
2026-04-30 11:37 30.23501 119.91840 36739 ft 398 kts 223°
2026-04-30 11:37 30.21111 119.90253 36864 ft 400 kts 223°
2026-04-30 11:37 30.16246 119.87015 37081 ft 403 kts 223°
2026-04-30 11:38 30.13816 119.85402 37230 ft 403 kts 223°
2026-04-30 11:38 30.11389 119.83792 37389 ft 403 kts 223°
2026-04-30 11:38 30.08963 119.82185 37569 ft 402 kts 223°
2026-04-30 11:38 30.06566 119.80602 37705 ft 402 kts 224°
2026-04-30 11:39 30.01706 119.77357 37859 ft 404 kts 224°
2026-04-30 11:39 29.96870 119.74097 38088 ft 404 kts 224°
2026-04-30 11:40 29.92010 119.70825 38193 ft 404 kts 223°
2026-04-30 11:40 29.87136 119.67555 38220 ft 403 kts 224°
2026-04-30 11:41 29.82486 119.64087 38220 ft 397 kts 227°
2026-04-30 11:41 29.77908 119.60511 38227 ft 396 kts 227°
2026-04-30 11:42 29.73375 119.56973 38222 ft 397 kts 227°
2026-04-30 11:42 29.68779 119.53381 38215 ft 397 kts 227°
2026-04-30 11:43 29.64441 119.49605 38223 ft 387 kts 232°
2026-04-30 11:43 29.60509 119.45469 38216 ft 381 kts 236°
2026-04-30 11:44 29.56942 119.41052 38213 ft 377 kts 238°
2026-04-30 11:44 29.53446 119.36623 38225 ft 378 kts 238°
2026-04-30 11:45 29.49912 119.32121 38217 ft 377 kts 238°
2026-04-30 11:45 29.46431 119.27696 38236 ft 375 kts 238°
2026-04-30 11:46 29.42920 119.23241 38231 ft 377 kts 238°
2026-04-30 11:46 29.39410 119.18780 38210 ft 377 kts 237°
2026-04-30 11:47 29.35890 119.14315 38223 ft 376 kts 237°
2026-04-30 11:47 29.32393 119.09901 38218 ft 376 kts 238°
2026-04-30 11:48 29.28866 119.05448 38215 ft 377 kts 237°
2026-04-30 11:48 29.25350 119.01013 38225 ft 378 kts 237°
2026-04-30 11:49 29.21805 118.96552 38219 ft 379 kts 237°
2026-04-30 11:49 29.18266 118.92103 38222 ft 377 kts 236°
2026-04-30 11:50 29.14748 118.87695 38220 ft 379 kts 237°
2026-04-30 11:50 29.11211 118.83262 38219 ft 378 kts 237°
2026-04-30 11:51 29.07663 118.78819 38210 ft 379 kts 236°
2026-04-30 11:51 29.04111 118.74371 38220 ft 379 kts 236°
2026-04-30 11:52 29.00550 118.69920 38227 ft 378 kts 236°
2026-04-30 11:52 28.96994 118.65479 38216 ft 379 kts 236°
2026-04-30 11:53 28.93442 118.61063 38213 ft 380 kts 237°
2026-04-30 11:53 28.89854 118.56583 38215 ft 382 kts 236°
2026-04-30 11:54 28.86270 118.52120 38217 ft 383 kts 236°
2026-04-30 11:54 28.82692 118.47675 38216 ft 383 kts 236°
2026-04-30 11:55 28.79094 118.43199 38218 ft 383 kts 236°
2026-04-30 11:55 28.75464 118.38700 38219 ft 385 kts 236°
2026-04-30 11:56 28.71820 118.34188 38223 ft 388 kts 235°
2026-04-30 11:56 28.68174 118.29673 38221 ft 388 kts 235°
2026-04-30 11:57 28.64525 118.25166 38221 ft 390 kts 236°
2026-04-30 11:57 28.60864 118.20637 38224 ft 390 kts 235°
2026-04-30 11:58 28.57173 118.16086 38226 ft 391 kts 235°
2026-04-30 11:58 28.53500 118.11559 38226 ft 390 kts 234°
2026-04-30 11:59 28.49830 118.07047 38226 ft 391 kts 235°
2026-04-30 11:59 28.46134 118.02498 38225 ft 391 kts 234°
2026-04-30 12:00 28.42460 117.97988 38224 ft 392 kts 235°
2026-04-30 12:00 28.38700 117.93476 38225 ft 394 kts 233°
2026-04-30 12:01 28.34887 117.88988 38227 ft 394 kts 233°
2026-04-30 12:01 28.31092 117.84519 38226 ft 394 kts 233°
2026-04-30 12:02 28.27269 117.80017 38226 ft 397 kts 233°
2026-04-30 12:02 28.23455 117.75526 38224 ft 397 kts 233°
2026-04-30 12:03 28.17719 117.68778 38225 ft 397 kts 233°
2026-04-30 12:04 28.13871 117.64257 38224 ft 396 kts 233°
2026-04-30 12:04 28.10045 117.59769 38225 ft 397 kts 233°
2026-04-30 12:05 28.06209 117.55270 38224 ft 398 kts 233°
2026-04-30 12:05 28.02384 117.50793 38225 ft 398 kts 233°
2026-04-30 12:06 27.98535 117.46294 38219 ft 399 kts 233°
2026-04-30 12:06 27.94669 117.41776 38219 ft 401 kts 233°
2026-04-30 12:07 27.90796 117.37251 38219 ft 401 kts 233°
2026-04-30 12:07 27.86883 117.32691 38222 ft 403 kts 233°
2026-04-30 12:08 27.82999 117.28165 38220 ft 405 kts 232°
2026-04-30 12:08 27.79064 117.23586 38214 ft 405 kts 232°
2026-04-30 12:09 27.75143 117.19028 38216 ft 407 kts 232°
2026-04-30 12:09 27.71197 117.14444 38216 ft 407 kts 232°
2026-04-30 12:10 27.67247 117.09864 38213 ft 408 kts 232°
2026-04-30 12:10 27.63311 117.05305 38216 ft 408 kts 232°
2026-04-30 12:11 27.59351 117.00719 38215 ft 409 kts 232°
2026-04-30 12:11 27.55367 116.96110 38211 ft 410 kts 232°
2026-04-30 12:12 27.51382 116.91505 38210 ft 410 kts 232°
2026-04-30 12:12 27.47444 116.86900 38212 ft 410 kts 232°
2026-04-30 12:13 27.43485 116.82265 38204 ft 411 kts 232°
2026-04-30 12:13 27.39519 116.77625 38205 ft 411 kts 232°
2026-04-30 12:14 27.35575 116.73025 38200 ft 399 kts 233°
2026-04-30 12:14 27.33696 116.70845 38202 ft 382 kts 233°
2026-04-30 12:14 27.31872 116.68722 38199 ft 373 kts 233°
2026-04-30 12:15 27.28294 116.64536 38200 ft 372 kts 233°
2026-04-30 12:15 27.24707 116.60352 38202 ft 372 kts 233°
2026-04-30 12:16 27.21101 116.56157 38203 ft 373 kts 233°
2026-04-30 12:16 27.17582 116.51935 38204 ft 372 kts 234°
2026-04-30 12:17 27.12304 116.45525 38199 ft 373 kts 234°
2026-04-30 12:17 27.08795 116.41273 38201 ft 372 kts 233°
2026-04-30 12:18 27.05263 116.37005 38200 ft 373 kts 233°
2026-04-30 12:18 27.01751 116.32761 38201 ft 373 kts 233°
2026-04-30 12:19 26.98215 116.28495 38202 ft 373 kts 233°
2026-04-30 12:19 26.94672 116.24225 38201 ft 374 kts 233°
2026-04-30 12:20 26.91123 116.19947 38203 ft 375 kts 233°
2026-04-30 12:20 26.87600 116.15658 38201 ft 375 kts 233°
2026-04-30 12:21 26.84087 116.11379 38202 ft 374 kts 233°
2026-04-30 12:21 26.80543 116.07066 38197 ft 375 kts 233°
2026-04-30 12:22 26.77014 116.02778 38200 ft 376 kts 233°
2026-04-30 12:22 26.73478 115.98490 38199 ft 377 kts 233°
2026-04-30 12:23 26.69918 115.94176 38199 ft 378 kts 233°
2026-04-30 12:23 26.66340 115.89839 38199 ft 378 kts 233°
2026-04-30 12:24 26.65168 115.88422 38199 ft 378 kts 233°